Location: Unspecified
(47.9110°N, 14.3980°E)
Time: 07:16:21
(UTC+00:00)

Cosmos 1934 Rocket - Pass Details

Date: 06 August 2020
Orbit: 937 x 1000 km, 83.0° (Epoch: 26 September)

Event Time Altitude Azimuth Distance (km) Brightness Sun altitude
Exits shadow 20:31:17 10° 190° (S) 2,764 6.0 -16.8°
Reaches altitude 10° 20:31:18 10° 190° (S) 2,755 6.0 -16.8°
Maximum altitude 20:37:39 84° 278° (W) 1,012 4.1 -17.4°
Drops below altitude 10° 20:44:05 10° 8° (N) 2,781 7.0 -18.1°
Sets 20:46:38 0° 9° (N) 3,733 7.7 -18.4°
